Temp
68 71 75 77 78 78 77 77 77 76 77 77 77 77 77 77 76 76 76 76 76 76 76 76 76 76 75 75 75 75 75 75 75 75 75 76 77 77 76 75 75 74 76
71 73 74 76 77 77 77 76 76 76 77 77 77 77 77 77 77 76 76 76 76 76 76 76 75 75 74 74 74 74 74 74 73 73 73 74 75 76 75 74 75 75 76
72 73 74 75 76 76 76 76 76 76 77 77 77 77 77 77 76 76 75 75 75 75 75 75 75 74 73 73 73 74 74 73 73 72 72 69 72 76 76 75 74 75 75
73 74 73 73 75 75 75 75 76 76 77 77 77 77 77 76 76 76 75 75 74 74 75 74 74 73 73 73 73 74 73 72 71 70 69 70 74 76 75 74 74 74 74
72 73 73 73 75 75 75 75 75 76 76 77 77 77 77 76 75 75 74 74 74 74 74 74 73 73 72 72 73 73 72 71 69 68 66 68 69 76 76 74 73 72 72
71 73 71 73 75 75 75 75 75 76 76 76 76 77 76 76 75 74 74 73 73 73 74 73 72 72 72 72 72 72 71 69 66 62 63 66 68 74 74 74 73 72 72
70 71 72 73 74 74 75 75 75 75 76 76 76 76 76 75 74 74 73 73 73 73 73 73 72 71 71 71 72 71 69 67 62 61 61 62 67 74 74 73 73 72 72
69 71 71 70 71 73 74 74 74 74 75 74 75 75 75 75 74 74 73 73 73 73 72 72 72 71 71 71 71 69 66 64 61 60 60 61 71 74 73 73 72 72 72
65 67 69 69 68 68 70 71 72 73 74 74 74 74 73 73 73 73 72 73 73 72 72 71 71 71 71 70 70 67 64 63 56 57 62 60 71 73 73 73 72 72 72
62 63 64 69 68 68 68 65 67 70 71 72 71 70 68 69 70 69 69 71 72 72 71 71 70 70 70 69 68 65 63 61 54 55 56 62 71 72 72 72 72 72 71
61 60 61 62 66 70 70 66 64 66 69 68 67 66 64 66 67 67 66 69 70 70 70 70 69 68 65 65 65 63 60 53 53 53 54 66 70 72 72 72 72 72 71
53 56 57 59 61 63 69 69 69 69 67 68 67 66 67 66 66 68 64 65 66 67 68 69 67 64 60 56 55 58 53 53 52 52 54 66 69 71 71 71 71 72 71
52 54 55 55 56 58 61 65 68 69 66 65 67 66 67 66 65 64 63 63 61 60 59 59 58 57 56 55 54 54 54 52 50 51 57 64 68 69 69 69 69 69 70
51 50 53 54 55 56 58 61 64 65 64 62 63 65 66 65 64 63 62 63 63 62 57 56 55 55 55 56 55 54 54 52 51 51 54 61 65 67 68 68 68 68 68
50 49 51 53 53 56 58 62 61 59 61 61 60 64 66 65 64 64 62 61 60 61 59 55 54 56 54 56 55 55 54 53 53 52 52 58 62 65 66 66 67 67 68
50 48 51 52 54 56 59 59 58 59 60 60 60 61 62 62 61 60 59 58 58 58 57 56 55 53 55 54 54 54 54 55 55 52 51 52 59 61 63 64 65 65 66
49 50 50 52 53 53 56 56 56 57 57 56 57 58 58 59 58 57 56 55 55 56 56 55 53 54 54 56 53 55 54 53 53 53 51 51 50 56 59 61 62 63 64
48 49 50 54 52 50 55 55 55 55 55 55 55 56 56 56 56 55 55 54 55 54 53 51 50 47 46 47 47 47 48 50 50 50 49 49 47 47 51 56 58 59 62
48 48 47 49 49 50 52 55 55 55 54 54 54 55 55 54 52 50 48 49 50 49 47 47 44 45 43 45 47 46 44 45 46 49 47 46 46 44 45 51 52 54 58
47 47 47 48 52 53 53 52 52 51 51 52 52 52 51 49 49 48 46 46 47 47 45 44 42 41 40 43 49 46 44 43 44 42 42 45 44 42 42 43 40 44 53
45 45 46 46 50 51 51 50 49 48 48 48 48 49 46 46 47 46 44 44 43 43 43 44 41 40 39 39 44 44 42 42 41 40 39 39 40 41 41 41 40 40 42
45 45 46 47 48 51 53 51 50 48 45 46 45 43 44 44 44 44 42 40 41 41 40 40 41 39 37 36 39 40 37 39 39 40 37 40 36 37 39 40 39 40 38
44 44 47 48 50 52 51 49 47 47 46 44 39 39 40 41 41 40 40 40 39 39 38 37 38 39 36 36 36 39 34 34 33 37 36 34 35 34 34 35 38 39 38
44 44 47 49 50 50 50 49 46 41 39 39 37 37 38 39 39 39 39 38 37 38 37 36 37 36 36 35 35 37 33 34 31 32 32 32 34 35 33 33 34 36 37
44 45 45 46 47 49 50 49 45 39 39 38 36 37 36 37 37 37 37 37 36 36 35 35 35 34 34 32 32 32 31 30 29 29 27 28 30 32 31 32 32 32 35
42 43 44 45 49 49 48 46 43 39 39 37 36 36 35 35 35 35 36 34 34 34 34 33 32 32 31 31 30 30 30 29 28 27 25 25 25 28 30 30 31 31 31
MSLP
1020.44 1020.15 1020.14 1020.23 1020.26 1020.51 1020.75 1020.83 1020.90 1020.99 1021.09 1021.07 1021.05 1021.28 1021.38 1021.58 1021.45 1021.56 1021.52 1021.62 1021.72 1021.75 1021.78 1021.79 1021.64 1021.55 1021.48 1021.37 1021.31 1021.24 1021.07 1020.96 1021.01 1020.98 1020.93 1020.83 1020.68 1020.74 1020.67 1020.49 1020.31 1020.16 1020.06
1019.89 1020.23 1020.30 1020.40 1020.69 1020.82 1021.02 1021.15 1021.23 1021.26 1021.25 1021.38 1021.40 1021.65 1021.74 1021.87 1021.82 1021.85 1022.04 1022.16 1022.18 1022.18 1022.20 1022.06 1021.96 1021.91 1021.88 1021.69 1021.63 1021.57 1021.38 1021.21 1021.12 1021.28 1021.33 1021.26 1021.15 1021.09 1021.11 1021.09 1020.96 1020.76 1020.55
1019.90 1020.28 1020.48 1020.75 1020.91 1021.15 1021.26 1021.36 1021.45 1021.46 1021.57 1021.76 1021.69 1021.87 1022.04 1022.03 1022.11 1022.27 1022.59 1022.61 1022.58 1022.70 1022.63 1022.45 1022.42 1022.37 1022.25 1022.15 1021.97 1021.85 1021.62 1021.53 1021.46 1021.59 1021.68 1021.70 1021.62 1021.38 1021.51 1021.66 1021.59 1021.39 1021.23
1019.91 1020.30 1020.53 1020.72 1020.98 1021.19 1021.41 1021.55 1021.64 1021.66 1021.82 1021.85 1022.00 1022.20 1022.36 1022.34 1022.56 1022.76 1022.74 1023.02 1023.06 1023.10 1022.97 1022.96 1022.96 1022.90 1022.79 1022.65 1022.50 1022.33 1022.20 1022.25 1022.35 1022.37 1022.27 1022.14 1021.93 1021.93 1021.95 1022.01 1022.02 1022.05 1021.90
1020.21 1020.40 1020.63 1020.85 1021.09 1021.31 1021.46 1021.58 1021.77 1021.99 1022.09 1022.22 1022.28 1022.48 1022.58 1022.73 1022.98 1023.15 1023.20 1023.51 1023.40 1023.37 1023.38 1023.52 1023.40 1023.39 1023.31 1023.17 1023.06 1022.89 1022.82 1022.91 1023.02 1022.99 1022.94 1022.82 1022.58 1022.46 1022.36 1022.46 1022.53 1022.50 1022.35
1020.34 1020.52 1020.77 1020.99 1021.22 1021.43 1021.64 1021.87 1022.02 1022.14 1022.24 1022.35 1022.53 1022.66 1022.81 1023.07 1023.35 1023.51 1023.72 1023.72 1023.68 1023.65 1023.74 1023.76 1023.75 1023.72 1023.68 1023.59 1023.43 1023.38 1023.36 1023.51 1023.57 1023.72 1023.60 1023.46 1023.25 1023.04 1023.03 1022.96 1022.94 1022.98 1022.82
1020.52 1020.68 1020.92 1021.06 1021.30 1021.50 1021.67 1021.85 1022.07 1022.27 1022.47 1022.64 1022.83 1022.99 1023.12 1023.36 1023.58 1023.76 1023.89 1023.95 1023.80 1023.91 1023.98 1024.08 1024.08 1024.01 1024.00 1023.96 1023.89 1023.97 1024.03 1024.14 1024.30 1024.26 1024.15 1023.96 1023.71 1023.53 1023.46 1023.31 1023.22 1023.16 1023.08
1020.54 1020.69 1020.95 1021.18 1021.33 1021.52 1021.74 1021.97 1022.21 1022.37 1022.63 1022.77 1022.91 1023.14 1023.27 1023.39 1023.59 1023.70 1023.84 1023.87 1023.89 1023.93 1024.04 1024.24 1024.28 1024.30 1024.20 1024.24 1024.27 1024.38 1024.48 1024.52 1024.66 1024.80 1024.73 1024.52 1024.08 1023.92 1023.91 1023.92 1023.73 1023.58 1023.37
1021.09 1021.12 1021.23 1021.39 1021.65 1021.77 1021.94 1022.05 1022.17 1022.30 1022.45 1022.57 1022.72 1022.88 1023.12 1023.29 1023.55 1023.77 1023.93 1023.99 1023.96 1024.09 1024.26 1024.55 1024.55 1024.54 1024.46 1024.54 1024.59 1024.69 1024.73 1024.85 1025.08 1025.21 1025.07 1024.99 1024.60 1024.39 1024.28 1024.23 1024.14 1024.11 1024.03
1021.76 1021.73 1021.74 1021.59 1021.63 1021.75 1021.95 1022.07 1022.07 1022.14 1022.30 1022.42 1022.60 1022.88 1023.19 1023.44 1023.64 1023.76 1023.96 1024.18 1024.18 1024.22 1024.43 1024.53 1024.56 1024.61 1024.58 1024.67 1024.78 1024.98 1025.19 1025.43 1025.67 1025.74 1025.67 1025.33 1024.90 1024.67 1024.56 1024.48 1024.47 1024.39 1024.27
1022.22 1022.13 1022.06 1021.93 1021.78 1021.61 1021.67 1022.05 1022.20 1022.29 1022.39 1022.56 1022.81 1023.08 1023.32 1023.52 1023.70 1023.93 1024.24 1024.52 1024.63 1024.66 1024.20 1024.50 1024.70 1024.93 1025.06 1025.21 1025.31 1025.46 1025.66 1025.97 1026.04 1026.14 1026.13 1025.68 1025.26 1025.01 1024.82 1024.69 1024.61 1024.53 1024.44
1022.60 1022.50 1022.38 1022.21 1022.11 1022.01 1021.73 1021.75 1021.86 1021.94 1022.29 1022.50 1022.71 1023.04 1023.26 1023.54 1023.86 1024.12 1024.40 1024.69 1025.00 1025.32 1025.21 1025.00 1025.13 1025.20 1025.45 1025.76 1025.85 1025.90 1026.21 1026.44 1026.60 1026.76 1026.54 1026.17 1025.80 1025.47 1025.34 1025.16 1024.84 1024.68 1024.57
1022.64 1022.73 1022.69 1022.59 1022.45 1022.29 1022.20 1022.02 1021.91 1021.97 1022.31 1022.48 1022.62 1022.85 1023.13 1023.52 1023.97 1024.38 1024.78 1025.08 1025.43 1025.72 1025.88 1025.87 1025.97 1026.20 1026.30 1026.40 1026.56 1026.60 1026.72 1026.90 1027.22 1027.25 1026.99 1026.66 1026.35 1026.01 1025.95 1025.83 1025.64 1025.47 1025.28
1022.86 1022.92 1022.91 1022.80 1022.59 1022.42 1022.33 1022.23 1022.12 1022.34 1022.64 1022.83 1022.87 1022.85 1023.06 1023.59 1024.16 1024.51 1024.91 1025.15 1025.35 1025.82 1026.17 1026.33 1026.49 1026.70 1026.80 1026.80 1026.83 1027.08 1027.17 1027.32 1027.45 1027.63 1027.42 1027.14 1026.98 1026.68 1026.50 1026.32 1025.99 1025.88 1025.83
1022.96 1023.00 1022.98 1022.85 1022.67 1022.51 1022.52 1022.51 1022.75 1023.06 1023.14 1023.28 1023.29 1023.30 1023.28 1023.67 1024.23 1024.69 1025.09 1025.45 1025.85 1026.01 1026.31 1026.69 1026.83 1026.98 1027.16 1027.24 1027.28 1027.29 1027.53 1027.66 1027.92 1028.12 1028.31 1027.84 1027.68 1027.30 1027.10 1027.04 1026.76 1026.28 1025.99
1022.97 1023.03 1023.07 1022.98 1022.78 1022.49 1022.56 1022.85 1023.16 1023.37 1023.54 1023.55 1023.75 1023.75 1023.91 1024.18 1024.53 1024.94 1025.36 1025.71 1026.00 1026.34 1026.49 1026.60 1026.78 1027.08 1027.18 1027.49 1027.68 1027.73 1027.98 1028.04 1028.37 1028.53 1028.69 1028.82 1028.26 1028.36 1027.81 1027.56 1027.30 1027.06 1026.58
1022.95 1023.06 1023.05 1023.00 1023.01 1022.89 1022.89 1023.16 1023.48 1023.71 1023.85 1023.96 1024.22 1024.27 1024.43 1024.68 1024.97 1025.37 1025.81 1026.27 1026.44 1026.59 1026.81 1026.83 1027.20 1027.34 1027.52 1027.70 1028.00 1028.10 1028.33 1028.48 1028.73 1028.96 1029.26 1029.39 1029.34 1029.17 1028.92 1028.43 1028.13 1027.70 1027.35
1022.84 1023.06 1023.03 1022.84 1023.20 1023.26 1023.04 1023.40 1023.74 1023.98 1024.02 1024.27 1024.50 1024.69 1024.89 1025.19 1025.50 1025.85 1026.22 1026.69 1026.82 1026.92 1027.25 1027.54 1027.73 1028.24 1028.73 1028.79 1029.13 1029.16 1029.32 1029.23 1029.60 1029.65 1029.76 1029.86 1029.94 1030.12 1029.85 1029.50 1029.17 1028.68 1028.19
1022.65 1022.86 1023.03 1023.12 1023.27 1023.38 1023.45 1023.70 1024.03 1024.25 1024.43 1024.73 1024.84 1025.12 1025.50 1025.68 1025.96 1026.36 1026.94 1027.32 1027.28 1027.54 1027.66 1027.92 1028.12 1028.45 1029.13 1029.45 1029.79 1030.01 1030.18 1030.21 1030.44 1030.27 1030.56 1030.62 1030.60 1030.47 1030.44 1030.27 1030.03 1029.70 1029.09
1022.56 1022.77 1022.91 1023.02 1023.20 1023.29 1023.54 1024.08 1024.51 1024.94 1025.15 1025.19 1025.26 1025.53 1025.92 1026.28 1026.59 1026.84 1027.25 1027.64 1027.60 1027.87 1028.20 1028.39 1028.80 1029.36 1029.76 1029.83 1030.49 1030.99 1031.02 1031.26 1031.24 1031.23 1031.37 1031.22 1031.08 1031.02 1030.97 1030.79 1030.58 1030.50 1029.95
1022.64 1022.79 1022.85 1022.92 1023.01 1023.19 1023.65 1024.17 1024.72 1025.28 1025.78 1025.75 1025.80 1025.73 1026.27 1026.79 1027.01 1027.22 1027.54 1027.84 1028.18 1028.28 1028.72 1028.75 1029.07 1029.56 1030.41 1030.56 1030.74 1031.65 1031.93 1032.01 1031.90 1032.11 1032.07 1032.05 1031.83 1031.66 1031.37 1031.37 1031.28 1031.08 1031.11
1022.41 1022.61 1022.74 1022.72 1022.86 1022.95 1023.23 1023.86 1024.51 1025.49 1026.36 1026.57 1026.75 1026.72 1026.56 1026.92 1027.40 1027.54 1027.87 1028.26 1028.48 1028.72 1029.01 1029.08 1029.15 1030.08 1031.03 1031.08 1031.15 1031.55 1032.48 1032.91 1032.64 1032.56 1032.53 1032.31 1032.53 1032.26 1032.04 1031.78 1031.70 1031.66 1031.37
1021.96 1022.19 1022.40 1022.57 1022.67 1022.87 1023.11 1023.84 1024.84 1025.72 1026.47 1027.01 1027.41 1027.58 1027.49 1027.29 1027.65 1027.94 1028.28 1028.51 1028.92 1029.00 1029.39 1029.72 1029.68 1029.91 1031.17 1031.71 1031.27 1031.45 1032.54 1033.14 1033.28 1032.96 1033.08 1033.10 1032.85 1032.70 1032.68 1032.54 1032.27 1032.02 1032.10
1021.27 1021.75 1022.01 1022.32 1022.61 1022.94 1023.14 1023.70 1024.20 1025.06 1026.31 1027.19 1027.63 1028.02 1027.92 1027.78 1028.19 1028.40 1028.58 1028.85 1029.18 1029.49 1029.77 1030.19 1030.10 1030.13 1030.59 1031.51 1031.81 1032.08 1032.28 1032.91 1033.55 1033.81 1033.52 1033.37 1033.18 1033.02 1033.15 1032.89 1032.84 1032.60 1032.54
1020.72 1021.18 1021.64 1022.09 1022.54 1022.90 1023.25 1023.69 1024.32 1025.34 1026.15 1027.09 1027.83 1028.28 1028.39 1028.61 1028.75 1028.93 1029.11 1029.47 1029.86 1030.10 1030.56 1030.79 1030.90 1031.04 1031.33 1031.90 1032.20 1032.70 1033.19 1033.80 1034.11 1034.54 1034.57 1034.41 1034.05 1033.58 1033.39 1033.33 1033.22 1033.04 1032.99
1020.42 1020.94 1021.35 1021.86 1022.42 1022.86 1023.28 1023.83 1024.35 1025.14 1026.10 1027.22 1028.04 1028.51 1028.83 1029.14 1029.31 1029.48 1029.64 1030.04 1030.46 1030.52 1031.05 1031.39 1031.64 1031.81 1032.11 1032.17 1032.49 1032.84 1033.56 1034.19 1034.71 1035.01 1035.37 1035.16 1035.03 1034.28 1033.63 1033.22 1033.12 1033.28 1033.37
Wind_Speed
1 5 9 11 12 13 13 13 13 12 13 14 13 17 17 17 19 17 18 17 17 16 16 16 16 16 15 15 16 15 15 13 12 16 16 17 18 19 19 19 15 12 17
7 5 10 11 11 12 12 12 11 11 11 14 14 15 16 17 17 18 18 17 16 15 15 16 15 15 14 14 15 15 15 14 10 9 12 12 15 18 20 19 17 15 19
8 6 6 12 11 12 11 11 10 12 13 13 13 13 14 16 17 18 17 17 16 15 15 16 16 16 15 15 15 16 16 15 16 13 11 5 9 19 19 18 18 18 17
10 7 7 12 12 12 11 11 11 11 11 12 12 13 14 15 16 17 17 16 16 15 15 16 15 15 15 16 17 19 19 19 18 14 7 7 9 17 17 17 17 17 16
7 7 8 11 12 12 11 11 10 10 11 11 12 12 13 15 15 16 17 15 16 16 16 16 16 16 16 17 17 18 18 18 17 13 10 9 7 13 15 15 14 15 15
7 7 9 11 11 11 10 10 10 10 11 11 11 12 13 14 15 15 15 16 16 17 17 17 17 17 17 18 19 21 18 18 14 8 7 8 6 16 15 14 13 14 13
6 7 7 10 10 10 11 10 9 10 10 10 11 12 13 14 14 15 14 14 16 16 17 16 16 17 17 17 19 20 18 18 8 8 8 8 7 14 14 13 13 13 13
7 7 6 8 10 11 9 9 8 9 10 10 10 11 14 14 14 15 14 14 15 16 16 15 15 15 16 17 18 19 18 16 10 8 8 7 13 15 15 15 14 13 12
7 6 4 6 7 7 6 7 8 9 9 9 10 11 13 13 14 14 13 14 15 15 16 15 14 14 15 15 16 16 16 16 8 5 7 5 12 15 15 15 14 14 13
6 6 5 3 5 6 5 7 8 9 9 10 10 11 11 11 11 11 11 11 14 16 14 14 14 13 13 13 13 14 14 14 7 6 5 5 13 15 14 14 14 14 14
4 4 3 3 2 2 5 5 6 7 7 7 7 9 9 5 6 8 7 10 9 10 16 12 12 12 12 12 13 14 11 4 6 4 4 12 14 15 15 13 12 12 12
3 2 3 4 3 2 2 5 6 5 5 4 5 6 5 5 4 5 7 9 10 8 8 10 11 11 8 5 4 9 4 6 5 5 4 15 16 16 17 18 17 16 14
4 2 3 3 4 3 2 2 1 1 2 2 6 6 5 5 5 4 3 4 4 6 3 5 6 5 6 5 5 5 5 5 4 4 7 16 17 18 19 19 19 20 19
4 2 2 3 2 2 2 0 2 4 2 3 3 4 5 4 4 4 3 3 4 3 4 4 4 5 6 6 7 6 6 5 4 3 7 15 19 20 19 18 18 18 19
5 2 2 3 3 2 3 4 4 4 4 4 5 5 5 6 6 4 4 4 3 3 3 4 4 4 5 5 5 6 6 7 8 5 5 18 19 21 22 21 20 19 19
4 2 1 3 2 4 6 6 5 4 4 5 5 5 7 5 5 5 5 4 4 3 3 3 4 4 4 4 5 6 6 8 9 9 6 7 22 23 21 21 20 20 19
4 5 3 4 4 5 8 6 5 4 4 5 5 6 7 6 6 6 5 5 3 4 4 4 5 5 5 5 7 6 7 9 9 10 8 7 7 19 25 23 22 22 21
6 6 5 4 5 5 8 6 5 5 5 5 4 5 7 7 7 6 5 4 3 4 4 4 4 5 5 5 4 5 6 8 10 9 8 7 5 6 13 21 23 22 22
7 7 7 6 7 7 8 7 7 7 6 5 5 6 7 8 8 7 5 4 5 5 5 4 5 4 4 4 6 5 5 6 6 7 9 9 8 6 6 15 19 22 23
7 6 7 5 8 8 8 7 6 6 6 4 5 7 7 5 6 7 5 5 4 5 5 5 6 6 4 4 8 7 6 5 6 7 6 6 7 7 6 8 6 8 21
6 7 7 8 9 8 7 7 5 5 4 4 4 9 7 6 6 6 5 6 4 5 5 4 4 7 7 4 5 6 6 5 6 5 4 5 7 6 7 6 5 5 6
8 8 7 9 9 7 6 4 4 5 4 4 3 6 6 7 6 6 6 6 6 6 6 4 4 4 4 5 3 3 3 1 3 4 4 5 6 4 7 7 7 8 7
11 10 10 10 10 7 9 9 8 7 5 3 3 4 3 7 7 7 6 7 6 5 5 4 4 6 5 4 7 4 3 2 2 2 4 4 6 5 5 6 8 8 8
12 8 9 9 7 8 11 11 14 6 6 3 3 2 4 6 7 6 7 7 7 5 7 5 4 4 4 4 3 6 7 3 3 3 2 3 5 6 6 5 5 5 7
11 12 8 7 7 9 10 9 8 7 6 6 4 6 6 5 6 6 6 7 7 6 6 6 6 7 4 4 3 2 5 4 5 3 3 5 4 5 2 3 4 4 7
8 9 9 9 9 10 10 10 11 14 13 10 6 6 4 4 4 6 7 6 5 7 6 6 6 7 6 6 4 5 3 3 2 3 1 2 2 4 4 3 3 4 4
Wind_Direction
219 160 128 117 112 111 110 107 104 98 93 87 84 99 92 86 83 80 75 67 62 60 61 58 58 56 54 52 51 51 51 47 55 56 58 61 61 57 50 40 43 45 48
144 154 135 117 111 107 104 99 95 97 100 97 83 95 95 94 90 81 70 63 56 58 58 56 55 55 53 49 48 49 41 39 55 77 59 52 66 62 53 47 38 37 41
136 131 128 116 111 104 100 94 94 88 88 92 92 91 96 95 89 80 74 68 67 64 57 55 52 47 43 40 44 43 39 58 74 65 49 35 62 63 57 52 45 43 38
141 142 134 129 126 122 119 115 111 106 104 96 93 99 95 97 91 86 77 69 68 66 61 58 56 52 48 44 41 40 51 64 61 53 44 38 51 55 55 50 48 44 40
138 139 139 137 136 132 130 123 114 110 105 103 102 103 97 103 94 87 80 74 68 64 59 57 56 52 47 47 44 47 65 65 57 45 31 27 24 41 43 45 46 43 40
143 141 148 144 139 132 124 120 120 119 116 113 110 105 105 112 103 94 87 79 73 65 60 56 55 54 52 52 47 57 66 63 56 43 41 32 42 47 40 38 38 40 40
139 144 153 148 144 142 141 140 136 133 124 120 117 116 112 116 108 99 96 92 82 76 70 65 61 56 55 53 49 57 67 61 54 41 28 20 28 45 46 47 47 46 44
132 137 140 144 152 153 155 150 151 146 140 137 135 129 126 130 126 121 115 103 93 86 81 76 72 67 63 59 59 64 64 58 47 40 27 15 20 37 37 34 35 39 45
57 69 93 130 139 142 151 161 169 166 156 152 149 143 139 136 138 135 130 124 114 104 100 88 78 73 70 66 65 70 73 66 60 48 32 6 24 35 37 36 36 35 35
69 72 62 86 163 163 168 162 168 181 171 166 157 148 141 139 141 144 143 137 131 121 110 108 101 87 80 76 73 74 74 69 62 48 24 9 36 40 39 41 41 40 37
54 58 78 94 90 158 165 172 162 151 178 169 146 144 141 143 153 148 139 130 124 128 125 116 104 89 77 61 61 65 68 63 60 45 19 23 37 38 37 38 43 38 36
111 40 33 19 3 325 276 169 189 175 163 171 161 154 156 152 143 121 127 118 101 66 65 95 95 95 80 63 50 59 56 58 52 39 25 35 38 39 37 27 23 30 28
155 89 29 10 344 328 321 303 215 132 123 191 179 172 164 143 133 113 104 101 100 78 56 52 51 39 49 58 45 49 59 60 53 41 31 41 43 42 37 33 29 21 12
144 131 11 2 340 311 282 300 83 98 71 59 51 151 130 122 115 108 117 108 97 98 83 64 63 61 52 53 67 54 51 53 55 46 35 42 46 41 38 36 35 29 22
155 154 8 3 341 327 94 77 69 72 71 57 49 56 106 117 124 111 88 83 80 109 91 82 74 70 64 58 60 74 67 71 67 62 41 48 48 45 42 35 31 32 30
149 149 26 49 73 101 88 88 87 70 71 74 52 57 61 78 97 100 100 97 82 73 86 98 95 91 78 75 69 59 69 82 77 69 61 42 55 48 43 40 35 30 26
163 153 150 101 82 87 101 90 87 85 84 75 70 62 72 76 94 97 86 79 87 85 87 79 66 63 64 64 57 58 75 78 75 68 59 48 41 42 40 41 35 32 28
153 154 140 118 114 99 105 102 97 89 87 80 74 69 72 79 86 91 95 92 90 89 71 61 66 65 58 60 65 55 75 78 74 69 66 56 46 43 29 39 35 30 29
167 155 149 147 130 118 106 101 96 90 81 81 92 81 76 81 79 88 88 82 82 86 83 89 60 85 70 68 82 69 57 69 68 64 60 51 45 42 32 31 32 29 27
167 162 153 146 134 126 113 103 87 83 72 74 90 93 87 85 90 98 88 87 84 89 76 69 83 58 73 80 83 70 56 54 62 56 50 47 37 36 25 26 21 16 26
172 168 168 153 154 143 136 127 113 113 97 86 88 102 95 91 93 104 100 87 76 88 96 89 95 72 37 14 106 77 49 45 57 50 44 34 28 20 28 19 14 16 10
179 184 174 167 167 160 148 117 120 123 78 75 58 69 93 102 95 97 102 102 98 103 78 71 78 97 64 6 108 106 139 4 27 49 38 32 26 11 17 14 19 16 16
186 184 180 176 171 159 129 116 102 99 100 89 48 65 57 95 94 97 98 99 90 86 90 72 86 103 126 32 51 130 105 200 332 349 29 28 15 18 4 2 16 20 29
190 179 179 175 164 147 145 144 151 142 141 142 123 113 96 85 93 92 94 95 94 92 90 83 76 98 114 119 73 47 65 111 123 342 337 348 5 10 357 1 13 25 27
177 180 170 160 152 153 155 156 139 112 115 122 112 114 100 84 86 91 92 95 95 92 82 91 74 71 61 105 99 100 62 61 57 96 289 327 352 332 340 350 4 41 29
166 168 165 160 165 159 153 148 145 139 139 138 139 135 124 110 101 92 94 93 101 98 99 92 84 83 93 89 87 74 100 116 65 69 15 300 270 293 316 324 27 43 32